User: anonymous   Login
Location: Theydon Bois
(51.6750°N, 0.1050°E)
Time: 08:09:02
(UTC+01:00)
Language:

NOSS 3-3 (A) - Orbit

View from above orbital plane
View from above orbital plane
View from above satellite
View from above satellite

Ground track
Ground track

The orbit data is extracted from the following two-line orbital elements,

1 28537U 05004A   18196.99962091 0.00000000  00000-0  00000-0 0    07
2 28537  63.4297 264.4265 0302740 358.1440   1.8560 13.40752493    06
Epoch (UTC): 15 July 2018 23:59:27
Eccentricity: 0.0302740
inclination: 63.4297°
perigee height: 880 km
apogee height: 1333 km
right ascension of ascending node: 264.4265°
argument of perigee: 358.1440°
revolutions per day: 13.40752493
mean anomaly at epoch: 1.8560°
orbit number at epoch: 0

The dashed part of the orbit path shows where the satellite is in the earth's shadow,  

DLR